Regional Weather Roundup
Issued by NWS

Home | Current Version | Previous Version | Graphics & Text | Print | Product List | Glossary On
Versions: 1 2 3 4 5 6 7 8 9 10 11 12 13 14 15 16 17 18 19 20 21 22 23 24 25 26 27 28
000
ASUS45 KBOI 262310
RWRID

IDAHO REGIONAL WEATHER ROUNDUP
NATIONAL WEATHER SERVICE BOISE ID
400 PM MST SUN FEB 26 2017

NOTE: "FAIR" INDICATES FEW OR NO CLOUDS BELOW 12000 FEET
WITH NO SIGNIFICANT WEATHER AND/OR OBSTRUCTIONS TO VISIBILITY

IDZ012-014-270000-
SOUTHWEST IDAHO


CITY           SKY/WX    TMP DP  RH WIND       PRES   REMARKS
BOISE          CLOUDY    38  19  46 SE14      29.69F WCI  30
CALDWELL       CLOUDY    38  22  52 S7G18     29.71S HAZE    WCI  33
MOUNTAIN HOME  CLOUDY    38  20  49 E17       29.69F WCI  28
$$

IDZ016-017-270000-
SOUTHCENTRAL IDAHO


CITY           SKY/WX    TMP DP  RH WIND       PRES   REMARKS
BURLEY         PTSUNNY   39  17  41 SW13      29.69F WCI  31
JEROME           N/A    N/A N/A N/A MISG      29.71F
TWIN FALLS     PTSUNNY   34  16  47 S12       29.70F WCI  25
$$

IDZ019>023-270000-
SOUTHEAST IDAHO


CITY           SKY/WX    TMP DP  RH WIND       PRES   REMARKS
IDAHO FALLS    PTSUNNY   28  18  66 SW15      29.74F WCI  16
POCATELLO      CLOUDY    31  20  63 S20G29    29.73F WCI  19
REXBURG        CLOUDY    24  15  68 NE6       29.74F WCI  17
$$

IDZ006-010-011-018-031-032-270000-
CENTRAL IDAHO MOUNTAINS


CITY           SKY/WX    TMP DP  RH WIND       PRES   REMARKS
MCCALL         LGT SNOW  23  18  81 S13       29.58R WCI  11
HAILEY         CLOUDY    27  16  63 CALM      29.71F
STANLEY          N/A     22   7  52 S8        29.57F WCI  12
SALMON         CLOUDY    30  16  55 S9G18     29.63F WCI  22
CHALLIS        CLOUDY    27  12  53 S15G22    29.60F WCI  15
$$

IDZ002-004-006-007-026-270000-
NORTHERN IDAHO


CITY           SKY/WX    TMP DP  RH WIND       PRES   REMARKS
LEWISTON       FLURRIES  35  32  88 NE6       29.68S WCI  30
LOWELL           N/A     35  32  88 CALM      29.69F
COEUR D`ALENE  CLOUDY    32  24  72 CALM      29.65F
MULLAN PASS    LGT SNOW  18  16  92 CALM      29.48F VSB 3/4
$$




USA.gov is the U.S. government's official web portal to all federal, state and local government web resources and services.